Time,TemperatureF,DewpointF,PressureIn,WindDirection,WindDirectionDegrees,WindSpeedMPH,WindSpeedGustMPH,Humidity,HourlyPrecipIn,Conditions,Clouds,dailyrainin,SoftwareType,DateUTC
2013-02-17 00:00:00,24.8,1.6,29.91,ESE,108,3.0,5.0,36,0.00,BKN,BKN,0.00,WeatherDisplay:10.34,2013-02-17 05:00:00,
2013-02-17 00:05:00,24.6,1.4,29.91,NNE,23,0.0,2.0,36,0.00,BKN,BKN,0.00,WeatherDisplay:10.34,2013-02-17 05:05:00,
2013-02-17 00:10:00,24.6,0.8,29.91,ENE,73,0.0,3.0,35,0.00,BKN,BKN,0.00,WeatherDisplay:10.34,2013-02-17 05:10:00,
2013-02-17 00:15:00,24.6,0.8,29.91,East,98,4.0,5.0,35,0.00,BKN,BKN,0.00,WeatherDisplay:10.34,2013-02-17 05:15:00,
2013-02-17 00:20:00,24.4,0.7,29.91,ENE,57,4.0,5.0,35,0.00,BKN,BKN,0.00,WeatherDisplay:10.34,2013-02-17 05:20:00,
2013-02-17 00:22:00,24.4,0.7,29.91,NE,52,3.0,3.0,35,0.00,BKN,BKN,0.00,WeatherDisplay:10.34,2013-02-17 05:22:00,
2013-02-17 00:27:00,24.4,1.3,29.91,NE,36,0.0,2.0,36,0.00,BKN,BKN,0.00,WeatherDisplay:10.34,2013-02-17 05:27:00,
2013-02-17 00:29:00,24.4,1.3,29.88,ENE,57,4.0,7.0,36,0.00,BKN,BKN,0.00,WeatherDisplay:10.34,2013-02-17 05:29:00,
2013-02-17 00:34:00,24.4,0.7,29.88,ESE,113,4.0,6.0,35,0.00,BKN,BKN,0.00,WeatherDisplay:10.34,2013-02-17 05:34:00,
2013-02-17 00:40:00,24.1,0.3,29.88,NNE,30,3.0,6.0,35,0.00,BKN,BKN,0.00,WeatherDisplay:10.34,2013-02-17 05:40:00,
2013-02-17 00:45:00,23.9,0.2,29.88,ENE,62,6.0,7.0,35,0.00,BKN,BKN,0.00,WeatherDisplay:10.34,2013-02-17 05:45:00,
2013-02-17 00:50:00,23.9,0.2,29.88,NNE,29,5.0,7.0,35,0.00,BKN,BKN,0.00,WeatherDisplay:10.34,2013-02-17 05:50:00,
2013-02-17 00:55:00,23.9,0.2,29.88,NE,56,3.0,6.0,35,0.00,BKN,BKN,0.00,WeatherDisplay:10.34,2013-02-17 05:55:00,
2013-02-17 01:00:00,23.9,0.8,29.88,North,11,5.0,7.0,36,0.00,BKN,BKN,0.00,WeatherDisplay:10.34,2013-02-17 06:00:00,
2013-02-17 01:05:00,23.9,0.8,29.88,ENE,57,4.0,7.0,36,0.00,SCT,SCT,0.00,WeatherDisplay:10.34,2013-02-17 06:05:00,
2013-02-17 01:10:00,23.7,0.0,29.88,NE,39,7.0,12.0,35,0.00,SCT,SCT,0.00,WeatherDisplay:10.34,2013-02-17 06:10:00,
2013-02-17 01:15:00,23.7,0.0,29.88,ENE,67,4.0,5.0,35,0.00,SCT,SCT,0.00,WeatherDisplay:10.34,2013-02-17 06:15:00,
2013-02-17 01:20:00,23.5,-0.2,29.88,NE,44,3.0,7.0,35,0.00,SCT,SCT,0.00,WeatherDisplay:10.34,2013-02-17 06:20:00,
2013-02-17 01:25:00,23.5,-0.2,29.88,East,95,4.0,5.0,35,0.00,SCT,SCT,0.00,WeatherDisplay:10.34,2013-02-17 06:25:00,
2013-02-17 01:30:00,23.4,-0.3,29.85,East,90,5.0,7.0,35,0.00,SCT,SCT,0.00,WeatherDisplay:10.34,2013-02-17 06:30:00,
2013-02-17 01:35:00,23.2,-0.5,29.85,East,84,4.0,6.0,35,0.00,SCT,SCT,0.00,WeatherDisplay:10.34,2013-02-17 06:35:00,
2013-02-17 01:40:00,23.0,-0.6,29.85,East,85,3.0,3.0,35,0.00,SCT,SCT,0.00,WeatherDisplay:10.34,2013-02-17 06:40:00,
2013-02-17 01:45:00,23.0,-0.6,29.85,East,86,4.0,5.0,35,0.00,SCT,SCT,0.00,WeatherDisplay:10.34,2013-02-17 06:45:00,
2013-02-17 01:50:00,23.0,-0.6,29.85,ENE,76,4.0,6.0,35,0.00,SCT,SCT,0.00,WeatherDisplay:10.34,2013-02-17 06:50:00,
2013-02-17 01:55:00,23.2,-0.5,29.85,ENE,65,3.0,5.0,35,0.00,SCT,SCT,0.00,WeatherDisplay:10.34,2013-02-17 06:55:00,
2013-02-17 02:00:00,23.4,-0.3,29.88,East,90,3.0,5.0,35,0.00,SCT,SCT,0.00,WeatherDisplay:10.34,2013-02-17 07:00:00,
2013-02-17 02:05:00,23.2,-0.5,29.88,ENE,61,5.0,7.0,35,0.00,OVC,OVC,0.00,WeatherDisplay:10.34,2013-02-17 07:05:00,
2013-02-17 02:10:00,23.0,-0.6,29.88,ENE,75,4.0,5.0,35,0.00,OVC,OVC,0.00,WeatherDisplay:10.34,2013-02-17 07:10:00,
2013-02-17 02:15:00,23.0,-0.6,29.85,ENE,57,3.0,5.0,35,0.00,OVC,OVC,0.00,WeatherDisplay:10.34,2013-02-17 07:15:00,
2013-02-17 02:20:00,22.8,-0.8,29.85,ENE,74,0.0,3.0,35,0.00,OVC,OVC,0.00,WeatherDisplay:10.34,2013-02-17 07:20:00,
2013-02-17 02:25:00,23.0,0.0,29.85,North,10,3.0,7.0,36,0.00,OVC,OVC,0.00,WeatherDisplay:10.34,2013-02-17 07:25:00,
2013-02-17 02:30:00,23.0,-0.6,29.85,North,0,5.0,7.0,35,0.00,OVC,OVC,0.00,WeatherDisplay:10.34,2013-02-17 07:30:00,
2013-02-17 02:35:00,22.8,-0.8,29.85,East,79,5.0,7.0,35,0.00,OVC,OVC,0.00,WeatherDisplay:10.34,2013-02-17 07:35:00,
2013-02-17 02:40:00,22.6,-1.0,29.85,North,9,4.0,6.0,35,0.00,OVC,OVC,0.00,WeatherDisplay:10.34,2013-02-17 07:40:00,
2013-02-17 02:45:00,22.5,-1.1,29.82,ENE,71,4.0,6.0,35,0.00,OVC,OVC,0.00,WeatherDisplay:10.34,2013-02-17 07:45:00,
2013-02-17 02:50:00,22.5,-1.1,29.82,ENE,77,4.0,7.0,35,0.00,OVC,OVC,0.00,WeatherDisplay:10.34,2013-02-17 07:50:00,
2013-02-17 02:55:00,22.5,-0.5,29.82,ENE,69,4.0,5.0,36,0.00,OVC,OVC,0.00,WeatherDisplay:10.34,2013-02-17 07:55:00,
2013-02-17 03:00:00,22.3,-1.3,29.82,ENE,65,4.0,6.0,35,0.00,OVC,OVC,0.00,WeatherDisplay:10.34,2013-02-17 08:00:00,
2013-02-17 03:05:00,22.3,-0.7,29.82,NNE,22,4.0,12.0,36,0.00,OVC,OVC,0.00,WeatherDisplay:10.34,2013-02-17 08:05:00,
2013-02-17 03:11:00,22.1,-0.8,29.82,ENE,73,4.0,7.0,36,0.00,OVC,OVC,0.00,WeatherDisplay:10.34,2013-02-17 08:11:00,
2013-02-17 03:16:00,22.1,-0.8,29.82,ENE,58,0.0,7.0,36,0.00,OVC,OVC,0.00,WeatherDisplay:10.34,2013-02-17 08:16:00,
2013-02-17 03:22:00,22.1,-0.8,29.82,NE,44,6.0,9.0,36,0.00,OVC,OVC,0.00,WeatherDisplay:10.34,2013-02-17 08:22:00,
2013-02-17 03:27:00,22.1,-0.8,29.82,NNE,26,5.0,9.0,36,0.00,OVC,OVC,0.00,WeatherDisplay:10.34,2013-02-17 08:27:00,
2013-02-17 03:32:00,22.1,-0.8,29.82,East,92,6.0,8.0,36,0.00,OVC,OVC,0.00,WeatherDisplay:10.34,2013-02-17 08:32:00,
2013-02-17 03:37:00,22.1,-0.8,29.82,East,79,3.0,6.0,36,0.00,OVC,OVC,0.00,WeatherDisplay:10.34,2013-02-17 08:37:00,
2013-02-17 03:42:00,21.9,-1.0,29.82,ENE,68,0.0,3.0,36,0.00,OVC,OVC,0.00,WeatherDisplay:10.34,2013-02-17 08:42:00,
2013-02-17 03:48:00,22.1,-0.8,29.82,North,0,7.0,12.0,36,0.00,OVC,OVC,0.00,WeatherDisplay:10.34,2013-02-17 08:48:00,
2013-02-17 03:53:00,21.9,-0.4,29.83,NNE,28,3.0,3.0,37,0.00,OVC,OVC,0.00,WeatherDisplay:10.34,2013-02-17 08:53:00,
2013-02-17 03:58:00,21.9,-0.4,29.83,NNE,14,5.0,7.0,37,0.00,OVC,OVC,0.00,WeatherDisplay:10.34,2013-02-17 08:58:00,
2013-02-17 04:03:00,21.9,-0.4,29.83,North,10,0.0,2.0,37,0.00,OVC,OVC,0.00,WeatherDisplay:10.34,2013-02-17 09:03:00,
2013-02-17 04:08:00,21.7,-0.6,29.83,East,83,0.0,5.0,37,0.00,OVC,OVC,0.00,WeatherDisplay:10.34,2013-02-17 09:08:00,
2013-02-17 04:13:00,21.7,-0.6,29.79,NNE,32,5.0,7.0,37,0.00,OVC,OVC,0.00,WeatherDisplay:10.34,2013-02-17 09:13:00,
2013-02-17 04:18:00,21.6,-0.7,29.80,NE,37,7.0,12.0,37,0.00,OVC,OVC,0.00,WeatherDisplay:10.34,2013-02-17 09:18:00,
2013-02-17 04:23:00,21.9,-0.4,29.80,NNE,15,3.0,5.0,37,0.00,OVC,OVC,0.00,WeatherDisplay:10.34,2013-02-17 09:23:00,
2013-02-17 04:28:00,21.7,0.0,29.80,NNE,23,0.0,3.0,38,0.00,OVC,OVC,0.00,WeatherDisplay:10.34,2013-02-17 09:28:00,
2013-02-17 04:33:00,21.6,-0.2,29.80,NNE,28,4.0,8.0,38,0.00,OVC,OVC,0.00,WeatherDisplay:10.34,2013-02-17 09:33:00,
2013-02-17 04:39:00,21.2,0.1,29.80,ENE,57,4.0,9.0,39,0.00,OVC,OVC,0.00,WeatherDisplay:10.34,2013-02-17 09:39:00,
2013-02-17 04:44:00,21.4,1.3,29.80,North,351,3.0,6.0,41,0.00,OVC,OVC,0.00,WeatherDisplay:10.34,2013-02-17 09:44:00,
2013-02-17 04:49:00,21.4,2.3,29.80,NNE,16,3.0,7.0,43,0.00,OVC,OVC,0.00,WeatherDisplay:10.34,2013-02-17 09:49:00,
2013-02-17 04:54:00,21.2,2.2,29.80,East,82,0.0,7.0,43,0.00,OVC,OVC,0.00,WeatherDisplay:10.34,2013-02-17 09:54:00,
2013-02-17 04:59:00,21.2,2.2,29.77,NNE,22,4.0,6.0,43,0.00,OVC,OVC,0.00,WeatherDisplay:10.34,2013-02-17 09:59:00,
2013-02-17 05:04:00,21.0,2.0,29.77,NNE,24,7.0,10.0,43,0.00,OVC,OVC,0.00,WeatherDisplay:10.34,2013-02-17 10:04:00,
2013-02-17 05:09:00,20.8,2.3,29.77,NE,37,3.0,6.0,44,0.00,OVC,OVC,0.00,WeatherDisplay:10.34,2013-02-17 10:09:00,
2013-02-17 05:14:00,20.8,2.3,29.77,North,7,3.0,5.0,44,0.00,OVC,OVC,0.00,WeatherDisplay:10.34,2013-02-17 10:14:00,
2013-02-17 05:19:00,20.7,2.6,29.77,ENE,63,5.0,8.0,45,0.00,OVC,OVC,0.00,WeatherDisplay:10.34,2013-02-17 10:19:00,
2013-02-17 05:24:00,20.5,2.9,29.77,NNE,22,4.0,6.0,46,0.00,OVC,OVC,0.00,WeatherDisplay:10.34,2013-02-17 10:24:00,
2013-02-17 05:29:00,20.5,3.4,29.77,North,9,3.0,7.0,47,0.00,OVC,OVC,0.00,WeatherDisplay:10.34,2013-02-17 10:29:00,
2013-02-17 05:34:00,20.7,3.6,29.77,ENE,63,5.0,7.0,47,0.00,OVC,OVC,0.00,WeatherDisplay:10.34,2013-02-17 10:34:00,
2013-02-17 05:39:00,20.5,3.4,29.77,ENE,71,7.0,12.0,47,0.00,OVC,OVC,0.00,WeatherDisplay:10.34,2013-02-17 10:39:00,
2013-02-17 05:44:00,20.5,3.4,29.77,North,351,8.0,10.0,47,0.00,OVC,OVC,0.00,WeatherDisplay:10.34,2013-02-17 10:44:00,
2013-02-17 05:49:00,20.5,3.4,29.77,ENE,63,3.0,8.0,47,0.00,OVC,OVC,0.00,WeatherDisplay:10.34,2013-02-17 10:49:00,
2013-02-17 05:54:00,20.7,3.6,29.77,NNE,29,3.0,5.0,47,0.00,OVC,OVC,0.00,WeatherDisplay:10.34,2013-02-17 10:54:00,
2013-02-17 05:59:00,20.5,3.4,29.74,East,97,0.0,3.0,47,0.00,OVC,OVC,0.00,WeatherDisplay:10.34,2013-02-17 10:59:00,
2013-02-17 06:04:00,20.7,3.6,29.74,North,7,3.0,3.0,47,0.00,OVC,OVC,0.00,WeatherDisplay:10.34,2013-02-17 11:04:00,
2013-02-17 06:09:00,21.0,4.4,29.74,NNW,337,3.0,7.0,48,0.00,OVC,OVC,0.00,WeatherDisplay:10.34,2013-02-17 11:09:00,
2013-02-17 06:14:00,21.2,4.5,29.74,NNW,345,3.0,6.0,48,0.00,OVC,OVC,0.00,WeatherDisplay:10.34,2013-02-17 11:14:00,
2013-02-17 06:19:00,21.0,4.8,29.74,North,351,0.0,0.0,49,0.00,OVC,OVC,0.00,WeatherDisplay:10.34,2013-02-17 11:19:00,
2013-02-17 06:24:00,20.8,5.1,29.74,WSW,254,0.0,6.0,50,0.00,OVC,OVC,0.00,WeatherDisplay:10.34,2013-02-17 11:24:00,
2013-02-17 06:29:00,20.5,4.8,29.74,NNW,347,3.0,6.0,50,0.00,OVC,OVC,0.00,WeatherDisplay:10.34,2013-02-17 11:29:00,
2013-02-17 06:35:00,20.5,5.6,29.74,North,351,0.0,0.0,52,0.00,OVC,OVC,0.00,WeatherDisplay:10.34,2013-02-17 11:35:00,
2013-02-17 06:40:00,20.5,6.0,29.74,NNE,18,0.0,0.0,53,0.00,OVC,OVC,0.00,WeatherDisplay:10.34,2013-02-17 11:40:00,
2013-02-17 06:45:00,20.5,6.0,29.71,NNE,25,0.0,6.0,53,0.00,OVC,OVC,0.00,WeatherDisplay:10.34,2013-02-17 11:45:00,
2013-02-17 06:50:00,20.5,6.4,29.71,NNE,14,0.0,0.0,54,0.00,OVC,OVC,0.00,WeatherDisplay:10.34,2013-02-17 11:50:00,
2013-02-17 06:55:00,20.5,6.9,29.71,NNE,14,3.0,3.0,55,0.00,OVC,OVC,0.00,WeatherDisplay:10.34,2013-02-17 11:55:00,
2013-02-17 07:00:00,20.3,6.7,29.71,North,356,3.0,5.0,55,0.00,OVC,OVC,0.00,WeatherDisplay:10.34,2013-02-17 12:00:00,
2013-02-17 07:05:00,20.3,7.1,29.71,North,356,0.0,0.0,56,0.00,OVC,OVC,0.00,WeatherDisplay:10.34,2013-02-17 12:05:00,
2013-02-17 07:10:00,20.3,7.5,29.71,North,0,0.0,3.0,57,0.00,OVC,OVC,0.00,WeatherDisplay:10.34,2013-02-17 12:10:00,
2013-02-17 07:15:00,20.3,7.9,29.68,North,351,0.0,5.0,58,0.00,OVC,OVC,0.00,WeatherDisplay:10.34,2013-02-17 12:15:00,
2013-02-17 07:20:00,20.3,7.9,29.68,NNE,15,3.0,6.0,58,0.00,OVC,OVC,0.00,WeatherDisplay:10.34,2013-02-17 12:20:00,
2013-02-17 07:25:00,20.3,8.2,29.68,NNE,15,0.0,3.0,59,0.00,OVC,OVC,0.00,WeatherDisplay:10.34,2013-02-17 12:25:00,
2013-02-17 07:30:00,20.1,8.4,29.68,NNW,333,4.0,7.0,60,0.00,OVC,OVC,0.00,WeatherDisplay:10.34,2013-02-17 12:30:00,
2013-02-17 07:35:00,20.3,8.6,29.68,NNE,16,3.0,5.0,60,0.00,OVC,OVC,0.00,WeatherDisplay:10.34,2013-02-17 12:35:00,
2013-02-17 07:40:00,20.1,8.4,29.68,WNW,289,0.0,3.0,60,0.00,OVC,OVC,0.00,WeatherDisplay:10.34,2013-02-17 12:40:00,
2013-02-17 07:45:00,19.9,8.6,29.68,NNE,23,0.0,3.0,61,0.00,OVC,OVC,0.00,WeatherDisplay:10.34,2013-02-17 12:45:00,
2013-02-17 07:50:00,20.1,8.8,29.68,North,351,4.0,6.0,61,0.00,OVC,OVC,0.00,WeatherDisplay:10.34,2013-02-17 12:50:00,
2013-02-17 07:55:00,20.3,9.0,29.68,NNE,17,4.0,7.0,61,0.00,OVC,OVC,0.00,WeatherDisplay:10.34,2013-02-17 12:55:00,
2013-02-17 08:00:00,20.3,9.0,29.65,NNE,15,4.0,7.0,61,0.00,OVC,OVC,0.00,WeatherDisplay:10.34,2013-02-17 13:00:00,
2013-02-17 08:05:00,20.1,8.4,29.65,ENE,66,4.0,6.0,60,0.00,OVC,OVC,0.00,WeatherDisplay:10.34,2013-02-17 13:05:00,
2013-02-17 08:10:00,20.1,8.4,29.65,NNW,341,4.0,6.0,60,0.00,OVC,OVC,0.00,WeatherDisplay:10.34,2013-02-17 13:10:00,
2013-02-17 08:15:00,20.1,8.4,29.65,NNE,18,0.0,8.0,60,0.00,OVC,OVC,0.00,WeatherDisplay:10.34,2013-02-17 13:15:00,
2013-02-17 08:20:00,19.9,8.3,29.65,NNE,33,0.0,3.0,60,0.00,OVC,OVC,0.00,WeatherDisplay:10.34,2013-02-17 13:20:00,
2013-02-17 08:25:00,20.1,8.4,29.65,North,5,3.0,8.0,60,0.00,OVC,OVC,0.00,WeatherDisplay:10.34,2013-02-17 13:25:00,
2013-02-17 08:30:00,20.3,8.6,29.62,North,351,3.0,6.0,60,0.00,OVC,OVC,0.00,WeatherDisplay:10.34,2013-02-17 13:30:00,
2013-02-17 08:35:00,20.3,8.6,29.62,NNE,26,4.0,10.0,60,0.00,OVC,OVC,0.00,WeatherDisplay:10.34,2013-02-17 13:35:00,
2013-02-17 08:40:00,20.5,8.4,29.62,NNE,26,0.0,2.0,59,0.00,OVC,OVC,0.00,WeatherDisplay:10.34,2013-02-17 13:40:00,
2013-02-17 08:45:00,20.5,8.4,29.62,NNW,328,0.0,3.0,59,0.00,OVC,OVC,0.00,WeatherDisplay:10.34,2013-02-17 13:45:00,
2013-02-17 08:50:00,20.5,8.4,29.62,North,351,9.0,15.0,59,0.00,OVC,OVC,0.00,WeatherDisplay:10.34,2013-02-17 13:50:00,
2013-02-17 08:55:00,20.5,8.4,29.62,North,0,4.0,8.0,59,0.00,OVC,OVC,0.00,WeatherDisplay:10.34,2013-02-17 13:55:00,
2013-02-17 09:00:00,20.7,9.0,29.59,North,8,4.0,6.0,60,0.00,OVC,OVC,0.00,WeatherDisplay:10.34,2013-02-17 14:00:00,
2013-02-17 09:05:00,20.5,8.4,29.59,North,0,3.0,6.0,59,0.00,OVC,OVC,0.00,WeatherDisplay:10.34,2013-02-17 14:05:00,
2013-02-17 09:10:00,20.7,9.0,29.59,NW,325,3.0,12.0,60,0.00,OVC,OVC,0.00,WeatherDisplay:10.34,2013-02-17 14:10:00,
2013-02-17 09:15:00,20.7,8.6,29.59,NNW,345,4.0,8.0,59,0.00,OVC,OVC,0.00,WeatherDisplay:10.34,2013-02-17 14:15:00,
2013-02-17 09:20:00,20.8,8.7,29.59,NNE,17,5.0,5.0,59,0.00,OVC,OVC,0.00,WeatherDisplay:10.34,2013-02-17 14:20:00,
2013-02-17 09:25:00,20.8,8.4,29.59,NNE,15,7.0,7.0,58,0.00,OVC,OVC,0.00,WeatherDisplay:10.34,2013-02-17 14:25:00,
2013-02-17 09:30:00,20.7,7.8,29.59,NNW,341,3.0,7.0,57,0.00,OVC,OVC,0.00,WeatherDisplay:10.34,2013-02-17 14:30:00,
2013-02-17 09:35:00,20.7,7.8,29.59,North,351,4.0,6.0,57,0.00,OVC,OVC,0.00,WeatherDisplay:10.34,2013-02-17 14:35:00,
2013-02-17 09:40:00,20.7,7.8,29.59,NNW,347,4.0,7.0,57,0.00,OVC,OVC,0.00,WeatherDisplay:10.34,2013-02-17 14:40:00,
2013-02-17 09:45:00,20.8,8.4,29.59,North,6,0.0,3.0,58,0.00,OVC,OVC,0.00,WeatherDisplay:10.34,2013-02-17 14:45:00,
2013-02-17 09:50:00,20.8,8.4,29.59,NNW,345,5.0,7.0,58,0.00,OVC,OVC,0.00,WeatherDisplay:10.34,2013-02-17 14:50:00,
2013-02-17 09:55:00,20.8,8.4,29.59,North,3,0.0,2.0,58,0.00,OVC,OVC,0.00,WeatherDisplay:10.34,2013-02-17 14:55:00,
2013-02-17 10:00:00,21.0,8.9,29.56,North,351,0.0,3.0,59,0.00,OVC,OVC,0.00,WeatherDisplay:10.34,2013-02-17 15:00:00,
2013-02-17 10:05:00,21.0,8.5,29.56,NE,40,7.0,12.0,58,0.04,RA,RA,0.04,WeatherDisplay:10.34,2013-02-17 15:05:00,
2013-02-17 10:10:00,21.0,8.5,29.56,North,351,7.0,12.0,58,0.04,RA,RA,0.04,WeatherDisplay:10.34,2013-02-17 15:10:00,
2013-02-17 10:15:00,20.8,8.4,29.56,North,0,3.0,6.0,58,0.04,OVC,OVC,0.04,WeatherDisplay:10.34,2013-02-17 15:15:00,
2013-02-17 10:20:00,20.7,7.8,29.56,NNW,341,4.0,6.0,57,0.04,OVC,OVC,0.04,WeatherDisplay:10.34,2013-02-17 15:20:00,
2013-02-17 10:25:00,20.7,7.8,29.56,North,6,7.0,12.0,57,0.04,OVC,OVC,0.04,WeatherDisplay:10.34,2013-02-17 15:25:00,
2013-02-17 10:30:00,20.7,7.8,29.56,NNE,17,3.0,10.0,57,0.04,OVC,OVC,0.04,WeatherDisplay:10.34,2013-02-17 15:30:00,
2013-02-17 10:36:00,20.5,7.6,29.56,NE,47,7.0,14.0,57,0.04,OVC,OVC,0.04,WeatherDisplay:10.34,2013-02-17 15:36:00,
2013-02-17 10:41:00,20.5,7.3,29.56,SW,233,5.0,13.0,56,0.04,OVC,OVC,0.04,WeatherDisplay:10.34,2013-02-17 15:41:00,
2013-02-17 10:46:00,20.3,7.5,29.56,NNE,23,6.0,9.0,57,0.04,OVC,OVC,0.04,WeatherDisplay:10.34,2013-02-17 15:46:00,
2013-02-17 10:51:00,20.5,7.6,29.56,NNW,344,4.0,6.0,57,0.04,OVC,OVC,0.04,WeatherDisplay:10.34,2013-02-17 15:51:00,
2013-02-17 10:56:00,20.5,7.6,29.56,NNE,16,3.0,9.0,57,0.04,OVC,OVC,0.04,WeatherDisplay:10.34,2013-02-17 15:56:00,
2013-02-17 11:01:00,20.5,7.6,29.56,NE,53,5.0,12.0,57,0.04,OVC,OVC,0.04,WeatherDisplay:10.34,2013-02-17 16:01:00,
2013-02-17 11:06:00,20.5,7.6,29.56,NW,311,7.0,9.0,57,0.00,OVC,OVC,0.04,WeatherDisplay:10.34,2013-02-17 16:06:00,
2013-02-17 11:11:00,20.3,7.9,29.56,NNE,19,5.0,8.0,58,0.00,OVC,OVC,0.04,WeatherDisplay:10.34,2013-02-17 16:11:00,
2013-02-17 11:16:00,20.3,7.9,29.56,North,2,5.0,12.0,58,0.00,OVC,OVC,0.04,WeatherDisplay:10.34,2013-02-17 16:16:00,
2013-02-17 11:21:00,20.1,7.7,29.56,NNW,339,8.0,9.0,58,0.00,OVC,OVC,0.04,WeatherDisplay:10.34,2013-02-17 16:21:00,
2013-02-17 11:26:00,20.3,7.9,29.56,NNW,338,5.0,9.0,58,0.00,OVC,OVC,0.04,WeatherDisplay:10.34,2013-02-17 16:26:00,
2013-02-17 11:31:00,20.5,7.6,29.53,NE,34,4.0,7.0,57,0.00,OVC,OVC,0.04,WeatherDisplay:10.34,2013-02-17 16:31:00,
2013-02-17 11:36:00,20.5,7.3,29.53,North,351,6.0,12.0,56,0.00,OVC,OVC,0.04,WeatherDisplay:10.34,2013-02-17 16:36:00,
2013-02-17 11:41:00,20.5,7.3,29.53,NNW,347,8.0,12.0,56,0.00,OVC,OVC,0.04,WeatherDisplay:10.34,2013-02-17 16:41:00,
2013-02-17 11:46:00,20.5,6.9,29.53,NW,316,5.0,13.0,55,0.00,OVC,OVC,0.04,WeatherDisplay:10.34,2013-02-17 16:46:00,
2013-02-17 11:51:00,20.5,6.4,29.53,East,85,4.0,6.0,54,0.00,OVC,OVC,0.04,WeatherDisplay:10.34,2013-02-17 16:51:00,
2013-02-17 11:56:00,20.5,6.0,29.53,North,351,4.0,10.0,53,0.00,OVC,OVC,0.04,WeatherDisplay:10.34,2013-02-17 16:56:00,
2013-02-17 12:01:00,20.5,5.6,29.53,North,6,4.0,12.0,52,0.00,OVC,OVC,0.04,WeatherDisplay:10.34,2013-02-17 17:01:00,
2013-02-17 12:06:00,20.5,5.2,29.53,North,356,4.0,9.0,51,0.00,OVC,OVC,0.04,WeatherDisplay:10.34,2013-02-17 17:06:00,
2013-02-17 12:11:00,20.5,5.2,29.53,SW,234,6.0,10.0,51,0.00,OVC,OVC,0.04,WeatherDisplay:10.34,2013-02-17 17:11:00,
2013-02-17 12:16:00,20.5,4.8,29.53,NNW,340,7.0,13.0,50,0.00,OVC,OVC,0.04,WeatherDisplay:10.34,2013-02-17 17:16:00,
2013-02-17 12:21:00,20.7,4.5,29.53,NNE,26,3.0,8.0,49,0.00,OVC,OVC,0.04,WeatherDisplay:10.34,2013-02-17 17:21:00,
2013-02-17 12:26:00,20.7,4.0,29.53,NE,44,4.0,9.0,48,0.00,OVC,OVC,0.04,WeatherDisplay:10.34,2013-02-17 17:26:00,
2013-02-17 12:31:00,20.7,3.6,29.50,NW,319,4.0,7.0,47,0.00,OVC,OVC,0.04,WeatherDisplay:10.34,2013-02-17 17:31:00,
2013-02-17 12:36:00,20.8,3.7,29.50,NNE,31,4.0,10.0,47,0.00,OVC,OVC,0.04,WeatherDisplay:10.34,2013-02-17 17:36:00,
2013-02-17 12:41:00,20.8,3.3,29.50,North,11,7.0,10.0,46,0.00,OVC,OVC,0.04,WeatherDisplay:10.34,2013-02-17 17:41:00,
2013-02-17 12:46:00,21.0,3.4,29.50,NNE,12,7.0,14.0,46,0.00,OVC,OVC,0.04,WeatherDisplay:10.34,2013-02-17 17:46:00,
2013-02-17 12:51:00,20.8,3.3,29.50,NNW,336,5.0,7.0,46,0.00,OVC,OVC,0.04,WeatherDisplay:10.34,2013-02-17 17:51:00,
2013-02-17 12:56:00,21.0,3.0,29.50,NNE,14,7.0,8.0,45,0.00,OVC,OVC,0.04,WeatherDisplay:10.34,2013-02-17 17:56:00,
2013-02-17 13:01:00,21.0,3.0,29.50,North,351,6.0,10.0,45,0.00,OVC,OVC,0.04,WeatherDisplay:10.34,2013-02-17 18:01:00,
2013-02-17 13:06:00,21.2,3.1,29.50,North,10,4.0,8.0,45,0.00,OVC,OVC,0.04,WeatherDisplay:10.34,2013-02-17 18:06:00,
2013-02-17 13:11:00,21.2,2.6,29.50,NNW,341,7.0,9.0,44,0.00,OVC,OVC,0.04,WeatherDisplay:10.34,2013-02-17 18:11:00,
2013-02-17 13:16:00,21.4,2.8,29.50,North,351,8.0,9.0,44,0.00,OVC,OVC,0.04,WeatherDisplay:10.34,2013-02-17 18:16:00,
2013-02-17 13:21:00,21.6,3.0,29.50,NNW,343,7.0,14.0,44,0.00,OVC,OVC,0.04,WeatherDisplay:10.34,2013-02-17 18:21:00,
2013-02-17 13:26:00,21.7,3.1,29.50,NNW,337,4.0,7.0,44,0.00,OVC,OVC,0.04,WeatherDisplay:10.34,2013-02-17 18:26:00,
2013-02-17 13:31:00,21.9,3.3,29.50,ENE,72,8.0,8.0,44,0.00,OVC,OVC,0.04,WeatherDisplay:10.34,2013-02-17 18:31:00,
2013-02-17 13:36:00,22.1,3.5,29.50,WNW,294,7.0,9.0,44,0.00,OVC,OVC,0.04,WeatherDisplay:10.34,2013-02-17 18:36:00,
2013-02-17 13:41:00,22.1,3.5,29.50,North,8,3.0,3.0,44,0.00,OVC,OVC,0.04,WeatherDisplay:10.34,2013-02-17 18:41:00,
2013-02-17 13:46:00,22.3,3.1,29.50,NNE,30,8.0,8.0,43,0.00,OVC,OVC,0.04,WeatherDisplay:10.34,2013-02-17 18:46:00,
2013-02-17 13:51:00,22.5,3.8,29.50,West,271,4.0,8.0,44,0.00,OVC,OVC,0.04,WeatherDisplay:10.34,2013-02-17 18:51:00,
2013-02-17 13:56:00,22.7,3.0,29.50,ESE,123,3.0,3.0,42,0.00,OVC,OVC,0.04,WeatherDisplay:10.34,2013-02-17 18:56:00,
2013-02-17 14:01:00,23.0,3.3,29.50,SW,216,4.0,4.0,42,0.00,OVC,OVC,0.04,WeatherDisplay:10.34,2013-02-17 19:01:00,
2013-02-17 14:06:00,23.1,3.3,29.50,East,82,4.0,8.0,42,0.00,OVC,OVC,0.04,WeatherDisplay:10.34,2013-02-17 19:06:00,
2013-02-17 14:11:00,23.2,3.4,29.50,NNW,336,4.0,8.0,42,0.00,OVC,OVC,0.04,WeatherDisplay:10.34,2013-02-17 19:11:00,
2013-02-17 14:16:00,23.2,2.9,29.50,North,351,5.0,5.0,41,0.00,OVC,OVC,0.04,WeatherDisplay:10.34,2013-02-17 19:16:00,
2013-02-17 14:21:00,23.4,3.6,29.50,NNW,337,4.0,6.0,42,0.00,OVC,OVC,0.04,WeatherDisplay:10.34,2013-02-17 19:21:00,
2013-02-17 14:26:00,23.4,3.1,29.50,West,266,4.0,6.0,41,0.00,OVC,OVC,0.04,WeatherDisplay:10.34,2013-02-17 19:26:00,
2013-02-17 14:31:00,23.5,3.8,29.50,NNW,333,0.0,3.0,42,0.00,OVC,OVC,0.04,WeatherDisplay:10.34,2013-02-17 19:31:00,
2013-02-17 14:36:00,23.9,4.1,29.50,North,0,4.0,6.0,42,0.00,OVC,OVC,0.04,WeatherDisplay:10.34,2013-02-17 19:36:00,
2013-02-17 14:41:00,23.9,4.1,29.50,North,3,4.0,5.0,42,0.00,OVC,OVC,0.04,WeatherDisplay:10.34,2013-02-17 19:41:00,
2013-02-17 14:46:00,23.9,3.6,29.50,West,270,3.0,3.0,41,0.00,OVC,OVC,0.04,WeatherDisplay:10.34,2013-02-17 19:46:00,
2013-02-17 14:51:00,23.9,3.0,29.50,NW,321,3.0,5.0,40,0.00,OVC,OVC,0.04,WeatherDisplay:10.34,2013-02-17 19:51:00,
2013-02-17 14:56:00,23.9,3.0,29.50,North,356,4.0,6.0,40,0.00,OVC,OVC,0.04,WeatherDisplay:10.34,2013-02-17 19:56:00,
2013-02-17 15:01:00,23.9,3.0,29.50,WSW,246,3.0,7.0,40,0.00,OVC,OVC,0.04,WeatherDisplay:10.34,2013-02-17 20:01:00,
2013-02-17 15:06:00,23.7,2.3,29.50,West,274,6.0,10.0,39,0.00,OVC,OVC,0.04,WeatherDisplay:10.34,2013-02-17 20:06:00,
2013-02-17 15:11:00,23.4,2.0,29.50,North,0,4.0,13.0,39,0.00,OVC,OVC,0.04,WeatherDisplay:10.34,2013-02-17 20:11:00,
2013-02-17 15:16:00,23.0,1.1,29.50,NNE,14,4.0,9.0,38,0.00,OVC,OVC,0.04,WeatherDisplay:10.34,2013-02-17 20:16:00,
2013-02-17 15:21:00,23.2,1.8,29.50,NNW,343,4.0,7.0,39,0.00,OVC,OVC,0.04,WeatherDisplay:10.34,2013-02-17 20:21:00,
2013-02-17 15:26:00,22.8,1.0,29.50,NW,308,4.0,8.0,38,0.00,OVC,OVC,0.04,WeatherDisplay:10.34,2013-02-17 20:26:00,
2013-02-17 15:31:00,22.6,0.8,29.50,NNW,337,5.0,8.0,38,0.00,OVC,OVC,0.04,WeatherDisplay:10.34,2013-02-17 20:31:00,
2013-02-17 15:36:00,22.3,0.5,29.50,North,351,4.0,12.0,38,0.00,OVC,OVC,0.04,WeatherDisplay:10.34,2013-02-17 20:36:00,
2013-02-17 15:41:00,22.1,0.3,29.50,NNW,342,3.0,13.0,38,0.00,OVC,OVC,0.04,WeatherDisplay:10.34,2013-02-17 20:41:00,
2013-02-17 15:46:00,21.7,0.0,29.50,WNW,294,3.0,7.0,38,0.00,OVC,OVC,0.04,WeatherDisplay:10.34,2013-02-17 20:46:00,
2013-02-17 15:51:00,21.7,0.0,29.50,North,9,7.0,10.0,38,0.00,OVC,OVC,0.04,WeatherDisplay:10.34,2013-02-17 20:51:00,
2013-02-17 15:56:00,21.6,-0.2,29.50,WNW,293,4.0,6.0,38,0.00,OVC,OVC,0.04,WeatherDisplay:10.34,2013-02-17 20:56:00,
2013-02-17 16:01:00,21.4,-0.9,29.50,NNW,344,7.0,12.0,37,0.00,OVC,OVC,0.04,WeatherDisplay:10.34,2013-02-17 21:01:00,
2013-02-17 16:06:00,20.8,-1.4,29.50,SW,233,6.0,6.0,37,0.00,CLR,CLR,0.04,WeatherDisplay:10.34,2013-02-17 21:06:00,
2013-02-17 16:11:00,20.5,-1.7,29.50,South,189,5.0,8.0,37,0.00,CLR,CLR,0.04,WeatherDisplay:10.34,2013-02-17 21:11:00,
2013-02-17 16:16:00,20.1,-2.0,29.50,NNE,26,4.0,8.0,37,0.00,CLR,CLR,0.04,WeatherDisplay:10.34,2013-02-17 21:16:00,
2013-02-17 16:21:00,19.6,-3.1,29.50,SW,234,7.0,12.0,36,0.00,CLR,CLR,0.04,WeatherDisplay:10.34,2013-02-17 21:21:00,
2013-02-17 16:26:00,19.2,-2.8,29.50,WSW,247,5.0,9.0,37,0.04,RA,RA,0.08,WeatherDisplay:10.34,2013-02-17 21:26:00,
2013-02-17 16:31:00,18.9,-3.2,29.54,WSW,254,5.0,9.0,37,0.04,RA,RA,0.08,WeatherDisplay:10.34,2013-02-17 21:31:00,
2013-02-17 16:36:00,18.7,-3.3,29.54,NNW,329,3.0,7.0,37,0.04,CLR,CLR,0.08,WeatherDisplay:10.34,2013-02-17 21:36:00,
2013-02-17 16:41:00,18.3,-3.7,29.54,North,351,4.0,7.0,37,0.04,CLR,CLR,0.08,WeatherDisplay:10.34,2013-02-17 21:41:00,
2013-02-17 16:46:00,18.1,-3.8,29.54,SW,228,6.0,9.0,37,0.04,CLR,CLR,0.08,WeatherDisplay:10.34,2013-02-17 21:46:00,
2013-02-17 16:51:00,17.8,-4.1,29.54,NW,319,6.0,16.0,37,0.04,CLR,CLR,0.08,WeatherDisplay:10.34,2013-02-17 21:51:00,
2013-02-17 16:56:00,17.2,-4.6,29.54,NNW,327,4.0,14.0,37,0.04,CLR,CLR,0.08,WeatherDisplay:10.34,2013-02-17 21:56:00,
2013-02-17 17:01:00,16.9,-4.9,29.54,NW,310,4.0,6.0,37,0.04,CLR,CLR,0.08,WeatherDisplay:10.34,2013-02-17 22:01:00,
2013-02-17 17:06:00,16.7,-5.1,29.54,NNE,12,7.0,12.0,37,0.04,OVC,OVC,0.08,WeatherDisplay:10.34,2013-02-17 22:06:00,
2013-02-17 17:11:00,16.5,-5.3,29.54,NNE,15,7.0,12.0,37,0.04,OVC,OVC,0.08,WeatherDisplay:10.34,2013-02-17 22:11:00,
2013-02-17 17:16:00,16.0,-5.8,29.54,NNW,330,6.0,10.0,37,0.04,OVC,OVC,0.08,WeatherDisplay:10.34,2013-02-17 22:16:00,
2013-02-17 17:21:00,15.6,-6.1,29.54,NW,326,6.0,13.0,37,0.04,OVC,OVC,0.08,WeatherDisplay:10.34,2013-02-17 22:21:00,
2013-02-17 17:26:00,15.3,-6.4,29.54,North,6,5.0,14.0,37,0.00,OVC,OVC,0.08,WeatherDisplay:10.34,2013-02-17 22:26:00,
2013-02-17 17:31:00,15.3,-6.4,29.57,North,1,7.0,13.0,37,0.00,OVC,OVC,0.08,WeatherDisplay:10.34,2013-02-17 22:31:00,
2013-02-17 17:36:00,14.9,-6.7,29.57,West,260,7.0,12.0,37,0.00,OVC,OVC,0.08,WeatherDisplay:10.34,2013-02-17 22:36:00,
2013-02-17 17:41:00,14.9,-6.2,29.58,WNW,288,7.0,13.0,38,0.00,OVC,OVC,0.08,WeatherDisplay:10.34,2013-02-17 22:41:00,
2013-02-17 17:46:00,14.7,-6.3,29.58,West,273,4.0,16.0,38,0.04,RA,RA,0.12,WeatherDisplay:10.34,2013-02-17 22:46:00,
2013-02-17 17:51:00,14.5,-6.5,29.58,ESE,119,4.0,8.0,38,0.08,RA,RA,0.16,WeatherDisplay:10.34,2013-02-17 22:51:00,
2013-02-17 17:56:00,14.5,-6.5,29.58,NNW,332,7.0,12.0,38,0.08,RA,RA,0.16,WeatherDisplay:10.34,2013-02-17 22:56:00,
2013-02-17 18:01:00,14.4,-6.7,29.58,NNE,18,4.0,8.0,38,0.08,OVC,OVC,0.16,WeatherDisplay:10.34,2013-02-17 23:01:00,
2013-02-17 18:06:00,14.4,-6.7,29.58,WSW,237,7.0,13.0,38,0.08,OVC,OVC,0.16,WeatherDisplay:10.34,2013-02-17 23:06:00,
2013-02-17 18:11:00,14.4,-6.7,29.58,NNW,335,8.0,12.0,38,0.08,OVC,OVC,0.16,WeatherDisplay:10.34,2013-02-17 23:11:00,
2013-02-17 18:16:00,14.0,-7.0,29.58,North,356,7.0,9.0,38,0.08,OVC,OVC,0.16,WeatherDisplay:10.34,2013-02-17 23:16:00,
2013-02-17 18:21:00,14.2,-6.3,29.58,NNW,341,4.0,7.0,39,0.08,OVC,OVC,0.16,WeatherDisplay:10.34,2013-02-17 23:21:00,
2013-02-17 18:26:00,14.0,-6.5,29.58,NNE,26,7.0,12.0,39,0.12,RA,RA,0.20,WeatherDisplay:10.34,2013-02-17 23:26:00,
2013-02-17 18:31:00,14.0,-7.0,29.58,North,356,6.0,12.0,38,0.12,RA,RA,0.20,WeatherDisplay:10.34,2013-02-17 23:31:00,
2013-02-17 18:37:00,13.8,-6.6,29.58,NNE,31,7.0,12.0,39,0.12,OVC,OVC,0.20,WeatherDisplay:10.34,2013-02-17 23:37:00,
2013-02-17 18:42:00,13.8,-6.6,29.58,WNW,291,7.0,15.0,39,0.12,OVC,OVC,0.20,WeatherDisplay:10.34,2013-02-17 23:42:00,
2013-02-17 18:47:00,13.8,-6.6,29.58,WSW,249,7.0,7.0,39,0.08,OVC,OVC,0.20,WeatherDisplay:10.34,2013-02-17 23:47:00,
2013-02-17 18:52:00,13.8,-6.6,29.58,NNW,347,5.0,12.0,39,0.04,OVC,OVC,0.20,WeatherDisplay:10.34,2013-02-17 23:52:00,
2013-02-17 18:57:00,13.6,-6.8,29.58,WSW,256,7.0,12.0,39,0.04,OVC,OVC,0.20,WeatherDisplay:10.34,2013-02-17 23:57:00,
2013-02-17 19:02:00,13.6,-6.8,29.58,NNE,15,6.0,12.0,39,0.04,BKN,BKN,0.20,WeatherDisplay:10.34,2013-02-18 00:02:00,
2013-02-17 19:07:00,13.6,-6.8,29.58,NNW,334,4.0,10.0,39,0.04,BKN,BKN,0.20,WeatherDisplay:10.34,2013-02-18 00:07:00,
2013-02-17 19:12:00,13.6,-6.8,29.58,NNW,345,7.0,10.0,39,0.04,BKN,BKN,0.20,WeatherDisplay:10.34,2013-02-18 00:12:00,
2013-02-17 19:17:00,13.6,-6.8,29.61,WNW,283,4.0,6.0,39,0.04,BKN,BKN,0.20,WeatherDisplay:10.34,2013-02-18 00:17:00,
2013-02-17 19:22:00,13.5,-6.9,29.61,WNW,302,6.0,13.0,39,0.04,BKN,BKN,0.20,WeatherDisplay:10.34,2013-02-18 00:22:00,
2013-02-17 19:27:00,13.6,-6.8,29.61,NNE,24,5.0,8.0,39,0.08,RA,RA,0.28,WeatherDisplay:10.34,2013-02-18 00:27:00,
2013-02-17 19:32:00,13.6,-6.8,29.61,NW,322,4.0,6.0,39,0.08,RA,RA,0.28,WeatherDisplay:10.34,2013-02-18 00:32:00,
2013-02-17 19:37:00,13.6,-6.8,29.61,West,260,6.0,13.0,39,0.08,BKN,BKN,0.28,WeatherDisplay:10.34,2013-02-18 00:37:00,
2013-02-17 19:42:00,13.5,-6.9,29.61,North,8,5.0,13.0,39,0.08,BKN,BKN,0.28,WeatherDisplay:10.34,2013-02-18 00:42:00,
2013-02-17 19:47:00,13.3,-7.1,29.61,SSW,210,5.0,12.0,39,0.08,BKN,BKN,0.28,WeatherDisplay:10.34,2013-02-18 00:47:00,
2013-02-17 19:52:00,13.1,-7.3,29.61,SSW,195,6.0,12.0,39,0.08,BKN,BKN,0.28,WeatherDisplay:10.34,2013-02-18 00:52:00,
2013-02-17 19:57:00,13.1,-7.3,29.61,WSW,257,5.0,10.0,39,0.12,RA,RA,0.31,WeatherDisplay:10.34,2013-02-18 00:57:00,
2013-02-17 20:02:00,12.7,-7.6,29.61,NNW,347,6.0,12.0,39,0.12,RA,RA,0.31,WeatherDisplay:10.34,2013-02-18 01:02:00,
2013-02-17 20:07:00,12.7,-7.6,29.61,SSW,206,4.0,9.0,39,0.12,OVC,OVC,0.31,WeatherDisplay:10.34,2013-02-18 01:07:00,
2013-02-17 20:12:00,12.7,-7.6,29.61,North,351,4.0,9.0,39,0.12,OVC,OVC,0.31,WeatherDisplay:10.34,2013-02-18 01:12:00,
2013-02-17 20:17:00,12.9,-7.4,29.61,NE,50,4.0,6.0,39,0.12,OVC,OVC,0.31,WeatherDisplay:10.34,2013-02-18 01:17:00,
2013-02-17 20:22:00,12.7,-7.6,29.61,WSW,249,7.0,12.0,39,0.12,OVC,OVC,0.31,WeatherDisplay:10.34,2013-02-18 01:22:00,
2013-02-17 20:44:00,12.4,-7.9,29.64,NW,318,6.0,10.0,39,0.04,OVC,OVC,0.31,WeatherDisplay:10.34,2013-02-18 01:44:00,
2013-02-17 20:49:00,12.4,-7.9,29.64,SW,228,5.0,9.0,39,0.04,OVC,OVC,0.31,WeatherDisplay:10.34,2013-02-18 01:49:00,
2013-02-17 20:54:00,12.4,-7.9,29.64,NNE,18,7.0,10.0,39,0.04,OVC,OVC,0.31,WeatherDisplay:10.34,2013-02-18 01:54:00,
2013-02-17 20:59:00,12.4,-7.9,29.64,NNE,12,7.0,13.0,39,0.04,OVC,OVC,0.31,WeatherDisplay:10.34,2013-02-18 01:59:00,
2013-02-17 21:04:00,12.0,-8.2,29.64,WSW,258,7.0,12.0,39,0.04,FEW,FEW,0.31,WeatherDisplay:10.34,2013-02-18 02:04:00,
2013-02-17 21:09:00,11.8,-8.4,29.64,NNW,341,5.0,12.0,39,0.04,FEW,FEW,0.31,WeatherDisplay:10.34,2013-02-18 02:09:00,
2013-02-17 21:14:00,12.0,-8.2,29.64,WSW,240,7.0,10.0,39,0.00,FEW,FEW,0.31,WeatherDisplay:10.34,2013-02-18 02:14:00,
2013-02-17 21:19:00,11.8,-8.4,29.64,West,267,5.0,9.0,39,0.00,FEW,FEW,0.31,WeatherDisplay:10.34,2013-02-18 02:19:00,
2013-02-17 21:24:00,11.8,-8.4,29.64,North,0,9.0,14.0,39,0.04,RA,RA,0.35,WeatherDisplay:10.34,2013-02-18 02:24:00,
2013-02-17 21:29:00,11.8,99.9,29.67,West,273,7.0,13.0,154,0.04,RA,RA,0.39,WeatherDisplay:10.34,2013-02-18 02:29:00,
2013-02-17 21:34:00,11.8,-8.4,29.67,WNW,287,4.0,14.0,39,0.08,RA,RA,0.39,WeatherDisplay:10.34,2013-02-18 02:34:00,
2013-02-17 21:39:00,11.7,-8.6,29.67,SW,215,7.0,12.0,39,0.08,RA,RA,0.39,WeatherDisplay:10.34,2013-02-18 02:39:00,
2013-02-17 21:44:00,11.7,-8.6,29.67,WNW,294,6.0,12.0,39,0.08,FEW,FEW,0.39,WeatherDisplay:10.34,2013-02-18 02:44:00,
2013-02-17 21:49:00,11.7,-8.6,29.67,SW,221,6.0,14.0,39,0.08,FEW,FEW,0.39,WeatherDisplay:10.34,2013-02-18 02:49:00,
2013-02-17 21:54:00,11.7,-8.6,29.67,WNW,292,5.0,13.0,39,0.08,FEW,FEW,0.39,WeatherDisplay:10.34,2013-02-18 02:54:00,
2013-02-17 21:59:00,11.7,-8.6,29.67,SSW,210,7.0,14.0,39,0.08,FEW,FEW,0.39,WeatherDisplay:10.34,2013-02-18 02:59:00,
2013-02-17 22:04:00,11.7,-8.6,29.67,WNW,296,6.0,12.0,39,0.08,FEW,FEW,0.39,WeatherDisplay:10.34,2013-02-18 03:04:00,
2013-02-17 22:09:00,11.5,-8.7,29.67,WSW,237,7.0,10.0,39,0.08,FEW,FEW,0.39,WeatherDisplay:10.34,2013-02-18 03:09:00,
2013-02-17 22:14:00,11.5,-8.7,29.67,North,351,4.0,7.0,39,0.08,FEW,FEW,0.39,WeatherDisplay:10.34,2013-02-18 03:14:00,
2013-02-17 22:19:00,11.3,-8.9,29.67,WNW,299,8.0,13.0,39,0.08,FEW,FEW,0.39,WeatherDisplay:10.34,2013-02-18 03:19:00,
2013-02-17 22:24:00,11.3,-8.9,29.67,WNW,282,3.0,6.0,39,0.12,RA,RA,0.47,WeatherDisplay:10.34,2013-02-18 03:24:00,
2013-02-17 22:29:00,11.3,-8.9,29.67,NNW,337,5.0,9.0,39,0.08,RA,RA,0.47,WeatherDisplay:10.34,2013-02-18 03:29:00,
2013-02-17 22:34:00,11.5,-8.7,29.67,WNW,298,7.0,13.0,39,0.08,RA,RA,0.47,WeatherDisplay:10.34,2013-02-18 03:34:00,
2013-02-17 22:39:00,11.5,-8.7,29.67,North,11,4.0,9.0,39,0.08,FEW,FEW,0.47,WeatherDisplay:10.34,2013-02-18 03:39:00,
2013-02-17 22:44:00,11.3,-8.9,29.67,West,263,7.0,10.0,39,0.08,FEW,FEW,0.47,WeatherDisplay:10.34,2013-02-18 03:44:00,
2013-02-17 22:49:00,11.3,-8.9,29.67,North,351,7.0,12.0,39,0.08,FEW,FEW,0.47,WeatherDisplay:10.34,2013-02-18 03:49:00,
2013-02-17 22:54:00,11.3,-8.9,29.67,WNW,282,5.0,10.0,39,0.08,FEW,FEW,0.47,WeatherDisplay:10.34,2013-02-18 03:54:00,
2013-02-17 22:59:00,11.3,-8.9,29.70,SSW,208,6.0,10.0,39,0.08,FEW,FEW,0.51,WeatherDisplay:10.34,2013-02-18 03:59:00,
2013-02-17 23:04:00,11.3,-8.9,29.70,North,0,5.0,9.0,39,0.12,RA,RA,0.51,WeatherDisplay:10.34,2013-02-18 04:04:00,
2013-02-17 23:09:00,11.1,99.9,29.70,WSW,247,4.0,14.0,154,0.12,RA,RA,0.51,WeatherDisplay:10.34,2013-02-18 04:09:00,
2013-02-17 23:14:00,11.1,-9.1,29.70,WNW,286,5.0,12.0,39,0.12,FEW,FEW,0.51,WeatherDisplay:10.34,2013-02-18 04:14:00,
2013-02-17 23:19:00,11.1,-9.1,29.70,WSW,242,5.0,9.0,39,0.12,FEW,FEW,0.51,WeatherDisplay:10.34,2013-02-18 04:19:00,
2013-02-17 23:24:00,11.1,-9.1,29.70,WNW,290,4.0,9.0,39,0.08,FEW,FEW,0.51,WeatherDisplay:10.34,2013-02-18 04:24:00,
2013-02-17 23:29:00,11.1,-9.1,29.70,NNE,14,6.0,7.0,39,0.04,FEW,FEW,0.51,WeatherDisplay:10.34,2013-02-18 04:29:00,
2013-02-17 23:34:00,11.1,-9.1,29.70,West,275,6.0,12.0,39,0.04,FEW,FEW,0.51,WeatherDisplay:10.34,2013-02-18 04:34:00,
2013-02-17 23:39:00,11.1,-9.1,29.70,West,267,5.0,9.0,39,0.04,FEW,FEW,0.51,WeatherDisplay:10.34,2013-02-18 04:39:00,
2013-02-17 23:44:00,10.9,-9.2,29.70,SSW,196,5.0,14.0,39,0.04,FEW,FEW,0.51,WeatherDisplay:10.34,2013-02-18 04:44:00,
2013-02-17 23:49:00,10.9,-9.2,29.70,WNW,302,7.0,12.0,39,0.04,FEW,FEW,0.51,WeatherDisplay:10.34,2013-02-18 04:49:00,
2013-02-17 23:54:00,10.9,-9.2,29.70,WSW,254,5.0,12.0,39,0.04,FEW,FEW,0.51,WeatherDisplay:10.34,2013-02-18 04:54:00,
2013-02-17 23:59:00,10.8,99.9,29.70,WNW,298,6.0,12.0,154,0.08,RA,RA,0.55,WeatherDisplay:10.34,2013-02-18 04:59:00,